Showing default

GLOBALSTAR M087, 52888

Orbit data source: Space-Track

GLOBALSTAR M087, 52888 is a payload satellite owned by Globalstar (US) in LEO that was launched on Sun, 19 Jun 2022 UTC via an FALCON 9 launch vehicle from the Air Force Eastern Test Range (AFETR). Payload-class satellites include a variety of spacecraft equipped with specific instruments for various scientific and technological missions. These include communications satellites like Starlink; space stations such as the ISS; scientific satellites like the Hubble; Earth observation satellites from companies like Planet Labs, Umbra, and HawkEye 360; GPS; miniature CubeSats for education and research; and military/defense satellites.

Loading next visibility...
Identifier
52888, 2022-064A
Orbit
LEO
Last TLE update
10 hours ago
Origin
Manufacturer
Thales Alenia
Mission
Operational Commercial Communications
Bus & Motor
PRISMA?, LS-400 AOCS?
Mass
715 kg wet, ~500 kg dry
Launch date (UTC)
2022-06-19 (3 years ago)
Launch vehicle
FALCON 9
Launch site
Air Force Eastern Test Range (AFETR)
Object type
Payload
Rocket body
Debris
Shape & HBR
Box + 2 Pan, 12 m
Radar Cross Section
28.800 m², Large (>1 m²)

Expand to show TLE details & history

TLE from 10 hours ago
0 GLOBALSTAR M087
1 52888U 22064A   25189.90983813 -.00000094  00000-0  55401-4 0  9994
2 52888  52.0008  27.6165 0001104  94.5842 265.5151 12.63725640147781
Epoch: 2025-07-08T21:50Z
TLE epoch observation values (Epoch: 2025-07-08T21:50:10.014Z)
Latitude
-0.00005°
Longitude
132.97668°
Altitude
1,408.354 km
Speed
7.157 km/s
True Right ascension
01h 50m 27s
True Declination
0° 00' 00"
Sunlit
Object was in daylight at epoch
Visualization orbit readout
Latitude
41.05826°
Longitude
-90.93682°
Altitude
1,410.61 km
Speed
7.16 km/s
Apparent Right ascension
09h 39m 30s
Apparent Declination
5° 47' 38"
Sunlit
Object is in daylight
Visualization observer readout
Local Sidereal Time
20:08:20
Azimuth
329.942° NNW
Elevation
-39.696°
Doppler factor
1
Orbital elements
Apogee altitude
1,408.857 km
Perigee altitude
1,407.137 km
Semi-major axis
7,786.134 km
Eccentricity
0.00011
Inclination
52.0008°
RAAN
27.6165°
Arg. of periapsis
94.5842°
True anomaly
Unknown
Mean anomaly
265.5151°
Eccentric anomaly
Unknown
Mean motion
3.15908 °/min
Orbital period
113.96 mins
BSTAR
0.000055401
Loading maneuver chart data...
Loading SW <> Apogee altitude chart data...
Loading historical data...
Loading historical data...
Loading historical data...
Loading historical data...
Loading historical data...
Loading historical data...
Loading historical data...
Other satellites on launch #64 in the year 2022 (2022-06-19 UTC)

GLOBALSTAR M087 Visibility forecast

Observer location: undefined°, undefined°

Span
Click to sort rows by Start time (UTC) header in descending order
Start Az.
Max El. time (UTC)
Max El. Az.
Max El.
End time (UTC)
End Az.
16 mins2025-07-09 15:01:44.967Z202.186° SSW2025-07-09 15:09:44.967Z128.08° SE37.522°2025-07-09 15:17:44.967Z59.521° ENE
15 mins2025-07-09 17:01:44.967Z253.786° W2025-07-09 17:08:44.967Z318.859° NNW40.787°2025-07-09 17:16:44.967Z49.173° ENE
14 mins2025-07-09 19:03:44.967Z295.349° NW2025-07-09 19:10:44.967Z2.447° NNE31.09°2025-07-09 19:17:44.967Z60.482° ENE
15 mins2025-07-09 21:04:44.967Z311.839° NW2025-07-09 21:11:44.967Z22.34° NNE36.99°2025-07-09 21:19:44.967Z94.932° ESE
15 mins2025-07-09 23:04:44.967Z303.475° NW2025-07-09 23:11:44.967Z225.855° WSW43.403°2025-07-09 23:19:44.967Z142.563° SSE
8 mins2025-07-10 01:06:44.967Z267.482° W2025-07-10 01:09:44.967Z244.184° WSW16.866°2025-07-10 01:14:44.967Z206.355° SW
|